[[{"header":{"parameterUnit":"m.s-1","parameterCategory":1,"la1":30.2991,"la2":30.254,"lo1":-89.0895,"lo2":-89.0444,"dy":0.0017,"dx":0.0017,"nx":28,"ny":28,"refTime":"2024-03-03T09:00:00:Z","depth":0,"parameterNumber":2,"parameterNumberName":"U-component_of_WINDS"},"data":[0,0,0,0,0,0,0,0,0,0,0,0,0,0,0,0,0,0,0,0,0,0,0,0,0,0,0,0,0,0,0,0,0,0,0,0,0,0,0,0,0,0,0,0,0,0,0,0,0,0,0,0,0,0,0,0,0,0,-1.188,-1.1881,0,-1.1898,-1.1898,-1.1898,-1.1884,-1.1883,-1.1883,-1.1882,-1.1903,-1.1904,-1.1905,0,0,0,0,0,0,0,0,0,0,0,0,0,-1.1837,-1.1838,-1.188,-1.1881,-1.1881,-1.1898,-1.1898,-1.1899,-1.1884,-1.1883,-1.1883,-1.1882,-1.1903,-1.1904,-1.1905,0,0,0,0,0,0,0,0,0,0,0,0,0,-1.1856,-1.1838,-1.188,-1.1876,-1.1875,-1.1898,-1.1898,-1.1899,-1.1884,-1.1883,-1.1883,-1.1882,-1.1902,-1.1904,-1.1905,-1.1934,0,0,-1.1911,-1.1911,0,0,0,0,0,0,0,0,-1.1855,-1.1857,-1.1876,-1.1876,-1.1876,-1.1888,-1.1891,-1.1911,-1.1885,-1.1881,-1.1882,-1.1881,-1.1899,-1.1901,-1.1906,-1.1935,-1.1936,-1.1911,-1.1912,-1.1912,-1.1913,0,0,0,0,0,0,0,-1.1853,-1.1856,-1.1887,-1.1876,-1.1876,-1.1874,-1.1875,-1.1894,-1.1895,-1.1881,-1.188,-1.1882,-1.1899,-1.1905,-1.1906,-1.1936,-1.1911,-1.1912,-1.1913,-1.1914,-1.1993,-1.1994,0,0,0,0,0,0,-1.1852,-1.1855,-1.1887,-1.1888,-1.1863,-1.1875,-1.1877,-1.1885,-1.1895,-1.1895,-1.1883,-1.1882,-1.1902,-1.1905,-1.1907,-1.1944,-1.1912,-1.1914,-1.1915,-1.1992,-1.1993,-1.1994,0,0,0,0,0,0,-1.1851,-1.1855,-1.1886,-1.1871,-1.1875,-1.1877,-1.1886,-1.1886,-1.1892,-1.1896,-1.1896,-1.1889,-1.1901,-1.1905,-1.1928,-1.1944,-1.1915,-1.1916,-1.199,-1.1992,-1.1994,-1.2016,0,0,0,0,0,0,-1.185,-1.1855,-1.1865,-1.1872,-1.1876,-1.1906,-1.1887,-1.1887,-1.1894,-1.1893,-1.1902,-1.1902,-1.1901,-1.1926,-1.193,-1.1946,-1.1918,-1.1989,-1.1991,-1.1993,-1.2014,-1.2018,-1.2022,0,0,0,0,0,-1.1849,-1.187,-1.1866,-1.1869,-1.1889,-1.1907,-1.1909,-1.1907,-1.1896,-1.1907,-1.191,-1.1902,-1.1941,-1.1928,-1.1933,-1.195,-1.1988,-1.1991,-1.1993,-1.2012,-1.2017,-1.2022,0,0,0,0,0,0,-1.1866,-1.1871,-1.1866,-1.189,-1.1898,-1.1904,-1.1918,-1.1912,-1.1924,-1.1921,-1.1918,-1.1921,-1.1946,-1.1949,-1.1935,-1.1979,-1.1963,-1.1967,-1.1976,-1.1981,-1.1985,-1.1984,-1.1919,0,0,0,0,0,-1.1873,-1.1886,-1.189,-1.1911,-1.1915,-1.1916,-1.1924,-1.1921,-1.1929,-1.1933,-1.1937,-1.1947,-1.1961,-1.1971,-1.1985,-1.2014,-1.2017,-1.2028,-1.2032,-1.2035,-1.2039,-1.2057,-1.2063,-1.2002,-1.2002,-1.2002,0,0,-1.1887,-1.1891,-1.19,-1.1915,-1.1921,-1.1936,-1.1919,-1.1935,-1.1947,-1.1936,-1.1958,-1.1962,-1.1972,-1.1999,-1.2011,-1.2003,-1.2056,-1.2038,-1.2041,-1.2043,-1.206,-1.2066,-1.2071,-1.2004,-1.2004,-1.2003,0,0,-1.1921,-1.1924,-1.1944,-1.195,-1.1959,-1.1959,-1.1964,-1.1971,-1.1973,-1.1995,-1.1988,-1.2002,-1.2026,-1.2035,-1.2042,-1.2081,-1.2075,-1.2085,-1.2107,-1.2125,-1.2129,-1.2134,-1.215,-1.2155,-1.2088,-1.2088,-1.2088,0,-1.1937,-1.1959,-1.1954,-1.1972,-1.198,-1.1969,-1.199,-1.1996,-1.2009,-1.2016,-1.2006,-1.2038,-1.2044,-1.2074,-1.2084,-1.2089,-1.2096,-1.2085,-1.2129,-1.2133,-1.2137,-1.2153,-1.2158,-1.209,-1.209,-1.2089,-1.2089,0,-1.198,-1.1996,-1.201,-1.2023,-1.2033,-1.2051,-1.2051,-1.2061,-1.2058,-1.206,-1.2084,-1.2091,-1.2107,-1.2113,-1.211,-1.2144,-1.2139,-1.2129,-1.2113,-1.2144,-1.2159,-1.2165,-1.2092,-1.2091,-1.2091,-1.209,0,0,-1.2026,-1.2037,-1.2043,-1.2049,-1.2059,-1.2071,-1.209,-1.2105,-1.2115,-1.2124,-1.2142,-1.2164,-1.2155,-1.2164,-1.2162,-1.2177,-1.221,-1.2166,-1.2166,-1.2176,-1.2251,-1.226,-1.2266,-1.2206,-1.2207,-1.2208,-1.2251,0,-1.2063,-1.2095,-1.2092,-1.2124,-1.214,-1.213,-1.2147,-1.2156,-1.2158,-1.2173,-1.2176,-1.2192,-1.2178,-1.2184,-1.2199,-1.2203,-1.2226,-1.22,-1.2224,-1.2225,-1.2224,-1.2274,-1.2283,-1.2323,-1.2256,-1.2257,-1.2258,0,-1.2109,-1.2121,-1.2154,-1.2163,-1.2169,-1.2184,-1.2199,-1.2212,-1.2222,-1.2223,-1.2233,-1.2229,-1.225,-1.2232,-1.2263,-1.2245,-1.2255,-1.2259,-1.2261,-1.2265,-1.2245,-1.2281,-1.2336,-1.2343,-1.2266,-1.2266,-1.2265,0,-1.2143,-1.2166,-1.219,-1.2195,-1.2205,-1.2217,-1.2222,-1.2231,-1.2241,-1.2253,-1.226,-1.2275,-1.2284,-1.2297,-1.2298,-1.2284,-1.233,-1.2311,-1.2333,-1.2333,-1.2345,-1.2345,-1.2404,-1.2347,-1.2347,-1.2347,-1.2347,0,-1.2185,-1.2206,-1.2205,-1.222,-1.2244,-1.2241,-1.2266,-1.2269,-1.2278,-1.2294,-1.2287,-1.2303,-1.2301,-1.2318,-1.2318,-1.2345,-1.2349,-1.2352,-1.2352,-1.2354,-1.2354,-1.2362,-1.236,-1.2348,-1.2348,-1.2348,-1.2348,0,-1.2227,-1.2227,-1.2252,-1.226,-1.2262,-1.228,-1.2288,-1.2302,-1.2304,-1.2325,-1.233,-1.2334,-1.2353,-1.2354,-1.2376,-1.2377,-1.2411,-1.2406,-1.2407,-1.2407,-1.243,-1.2429,-1.2499,-1.2509,-1.2443,-1.2444,-1.2444,0,-1.2255,-1.2272,-1.2281,-1.2291,-1.2297,-1.2313,-1.2323,-1.2321,-1.2332,-1.2346,-1.236,-1.2378,-1.2393,-1.2425,-1.243,-1.2448,-1.2446,-1.2469,-1.2449,-1.2451,-1.245,-1.245,-1.2453,-1.2474,-1.2475,-1.2475,-1.2476,0,-1.2306,-1.2305,-1.2319,-1.2335,-1.2347,-1.2358,-1.2369,-1.2378,-1.2377,-1.2391,-1.241,-1.2422,-1.2445,-1.2464,-1.2482,-1.2489,-1.2483,-1.2482,-1.2488,-1.2491,-1.2492,-1.2495,-1.2421,-1.2481,-1.248,-1.248,-1.2479,-1.2479,-1.2344,-1.2359,-1.2368,-1.2385,-1.2393,-1.2404,-1.2419,-1.2422,-1.2438,-1.2457,-1.2454,-1.2477,-1.2488,-1.2511,-1.2519,-1.2538,-1.253,-1.2539,-1.2542,-1.2545,-1.2548,-1.2487,-1.2541,-1.2541,-1.254,-1.254,-1.254,0,-1.2396,-1.2402,-1.2417,-1.2433,-1.2447,-1.2439,-1.2451,-1.2464,-1.2483,-1.2494,-1.2509,-1.2533,-1.2552,-1.2559,-1.2578,-1.2592,-1.259,-1.2597,-1.2597,-1.26,-1.2553,-1.2546,-1.2598,-1.2598,-1.2598,-1.2598,-1.2598,-1.2598,-1.2426,-1.2451,-1.2452,-1.2482,-1.2488,-1.2509,-1.2517,-1.2528,-1.2537,-1.2564,-1.2579,-1.2583,-1.2593,-1.2613,-1.2631,-1.2633,-1.2642,-1.2651,-1.2652,-1.2608,-1.2603,-1.2597,-1.2591,-1.2652,-1.2652,-1.2697,-1.2698,-1.2698]},{"header":{"parameterUnit":"m.s-1","parameterCategory":1,"la1":30.2991,"la2":30.254,"lo1":-89.0895,"lo2":-89.0444,"dy":0.0017,"dx":0.0017,"nx":28,"ny":28,"refTime":"2024-03-03T09:00:00:Z","depth":0,"parameterNumber":3,"parameterNumberName":"V-component_of_WINDS"},"data":[0,0,0,0,0,0,0,0,0,0,0,0,0,0,0,0,0,0,0,0,0,0,0,0,0,0,0,0,0,0,0,0,0,0,0,0,0,0,0,0,0,0,0,0,0,0,0,0,0,0,0,0,0,0,0,0,0,0,0.8039,0.804,0,0.8049,0.8049,0.8049,0.8014,0.8013,0.8012,0.8011,0.8021,0.8022,0.8023,0,0,0,0,0,0,0,0,0,0,0,0,0,0.7992,0.7993,0.8039,0.804,0.804,0.8049,0.8049,0.8049,0.8014,0.8013,0.8011,0.801,0.802,0.8022,0.8023,0,0,0,0,0,0,0,0,0,0,0,0,0,0.8008,0.7994,0.8039,0.8023,0.8022,0.8049,0.8049,0.8049,0.8014,0.8012,0.8011,0.8009,0.802,0.8022,0.8024,0.8067,0,0,0.8029,0.803,0,0,0,0,0,0,0,0,0.8007,0.801,0.8025,0.8024,0.8023,0.8028,0.8036,0.8055,0.8014,0.8017,0.801,0.8009,0.8025,0.8026,0.8031,0.8067,0.8068,0.8029,0.8031,0.8031,0.8032,0,0,0,0,0,0,0,0.8006,0.8009,0.8043,0.8026,0.8024,0.8016,0.8016,0.8039,0.803,0.8017,0.8014,0.8016,0.8024,0.803,0.8031,0.8068,0.8029,0.8031,0.8032,0.8033,0.814,0.8141,0,0,0,0,0,0,0.8007,0.8009,0.8043,0.8043,0.8011,0.8018,0.8019,0.8028,0.8029,0.8028,0.8017,0.8014,0.8027,0.8029,0.8031,0.8082,0.8031,0.8033,0.8034,0.8138,0.814,0.8142,0,0,0,0,0,0,0.8006,0.8011,0.8042,0.8025,0.8029,0.802,0.8032,0.8029,0.8035,0.803,0.8028,0.8025,0.8026,0.8029,0.8058,0.8082,0.8034,0.8036,0.8136,0.8139,0.8141,0.8183,0,0,0,0,0,0,0.8005,0.8011,0.8027,0.8026,0.803,0.8069,0.8033,0.8031,0.8038,0.8034,0.8036,0.8035,0.8025,0.8056,0.806,0.8083,0.8037,0.8134,0.8137,0.814,0.8179,0.8186,0.8193,0,0,0,0,0,0.8004,0.8038,0.8028,0.8032,0.805,0.807,0.8072,0.806,0.804,0.8056,0.8053,0.8035,0.8079,0.8059,0.8064,0.8088,0.8132,0.8136,0.814,0.8176,0.8185,0.8192,0,0,0,0,0,0,0.8042,0.8038,0.8026,0.8061,0.8066,0.8064,0.8084,0.807,0.808,0.8076,0.8061,0.8061,0.8093,0.8094,0.8072,0.813,0.8102,0.8107,0.8128,0.8136,0.8143,0.8142,0.8039,0,0,0,0,0,0.8054,0.8071,0.8067,0.8098,0.8102,0.8093,0.8101,0.8091,0.8096,0.8098,0.8096,0.8102,0.8117,0.8127,0.814,0.818,0.8179,0.8199,0.8205,0.8211,0.8215,0.8236,0.8244,0.8155,0.8154,0.8154,0,0,0.808,0.808,0.8092,0.8106,0.8109,0.8127,0.8095,0.8115,0.8128,0.8101,0.8128,0.8128,0.8133,0.8167,0.8182,0.8168,0.824,0.8216,0.822,0.8221,0.824,0.8249,0.8256,0.8157,0.8157,0.8156,0,0,0.8136,0.8138,0.8164,0.8168,0.8173,0.8166,0.8173,0.8173,0.8172,0.8199,0.8179,0.8195,0.8221,0.8225,0.8231,0.8289,0.8273,0.8294,0.8329,0.8349,0.8356,0.8362,0.8383,0.839,0.8299,0.8299,0.8299,0,0.8168,0.8194,0.818,0.8201,0.8208,0.8185,0.8211,0.8216,0.8225,0.823,0.8214,0.8247,0.8248,0.8283,0.8298,0.8303,0.831,0.8293,0.8356,0.8362,0.8368,0.8387,0.8395,0.8301,0.8301,0.8301,0.8301,0,0.8232,0.825,0.8271,0.828,0.8289,0.8314,0.8304,0.8315,0.8305,0.83,0.8329,0.833,0.8343,0.8351,0.8341,0.8385,0.8376,0.8359,0.833,0.8379,0.8397,0.8404,0.8305,0.8304,0.8303,0.8303,0,0,0.8311,0.8313,0.832,0.8324,0.8328,0.8342,0.8365,0.8378,0.8388,0.8395,0.8414,0.8437,0.8421,0.8427,0.8418,0.8436,0.8482,0.8416,0.8416,0.8428,0.853,0.8542,0.8551,0.8471,0.8473,0.8474,0.8529,0,0.8366,0.8405,0.8393,0.8433,0.8449,0.8428,0.8448,0.8453,0.845,0.8464,0.8461,0.8477,0.8455,0.8459,0.8475,0.8473,0.8502,0.8469,0.8489,0.8489,0.8487,0.856,0.8573,0.8625,0.8536,0.8537,0.8538,0,0.8434,0.8444,0.8485,0.8486,0.8492,0.8511,0.8521,0.8535,0.854,0.8537,0.8544,0.8531,0.8555,0.8527,0.8559,0.8537,0.8544,0.8544,0.8546,0.8547,0.8516,0.8562,0.8641,0.8648,0.8549,0.8548,0.8547,0,0.8486,0.851,0.8537,0.8541,0.8544,0.8557,0.8558,0.8562,0.8571,0.858,0.8586,0.8598,0.8605,0.8615,0.8606,0.8587,0.8639,0.8611,0.8637,0.8637,0.8648,0.8647,0.8728,0.8655,0.8654,0.8654,0.8654,0,0.8548,0.8573,0.8561,0.8578,0.8606,0.8593,0.8622,0.8621,0.8625,0.8641,0.8624,0.864,0.8627,0.8642,0.8635,0.8662,0.8666,0.8664,0.8661,0.8665,0.8665,0.8669,0.8664,0.8656,0.8656,0.8655,0.8655,0,0.861,0.8603,0.8632,0.8632,0.8632,0.8653,0.8653,0.8669,0.8665,0.8686,0.869,0.8684,0.8701,0.8693,0.8711,0.8706,0.8741,0.8734,0.8739,0.8737,0.8762,0.876,0.8848,0.8859,0.8779,0.878,0.8781,0,0.8649,0.8669,0.8671,0.868,0.8683,0.8699,0.8707,0.8696,0.8706,0.8714,0.8728,0.8744,0.8755,0.8783,0.878,0.8794,0.8787,0.8817,0.8789,0.8791,0.8786,0.8785,0.8786,0.8822,0.8823,0.8824,0.8824,0,0.8719,0.8715,0.8727,0.8739,0.875,0.8759,0.8766,0.8775,0.8764,0.8776,0.8793,0.8802,0.882,0.8835,0.8847,0.8849,0.8835,0.8834,0.884,0.8843,0.8845,0.8843,0.8753,0.8831,0.8831,0.883,0.883,0.883,0.877,0.8786,0.879,0.8805,0.881,0.8817,0.8832,0.883,0.8844,0.8857,0.885,0.887,0.8875,0.8889,0.8893,0.8909,0.8897,0.8906,0.8909,0.8911,0.8914,0.8843,0.8911,0.8911,0.8911,0.891,0.891,0,0.8838,0.884,0.8854,0.8865,0.8877,0.8863,0.8871,0.8881,0.8899,0.8905,0.8916,0.8936,0.8951,0.895,0.8964,0.8976,0.897,0.898,0.8978,0.8979,0.8924,0.8917,0.8985,0.8985,0.8985,0.8985,0.8985,0.8985,0.8875,0.8901,0.8897,0.8926,0.8927,0.8946,0.8952,0.8959,0.8963,0.8986,0.8998,0.8997,0.9001,0.9015,0.9028,0.9027,0.9033,0.9045,0.9042,0.899,0.8983,0.8976,0.8969,0.9047,0.9047,0.9095,0.9096,0.9096]}]]